{"data":{"norad_id":63234,"epoch":"2026-05-25T03:12:59.881824Z","epoch_age_seconds":63425,"freshness":"FRESH","line1":"1 63234U 25052AA  26145.13402641  .00003855  00000+0  17087-3 0  9997","line2":"2 63234  97.4017  38.1830 0005341 221.2048 138.8785 15.22194697 66337","mean_motion":15.22194697,"eccentricity":0.0005341,"inclination_deg":97.4017,"raan_deg":38.183,"arg_perigee_deg":221.2048,"mean_anomaly_deg":138.8785,"bstar":0.00017087,"rev_number":6633,"period_min":94.600250732578,"perigee_km":495.54895587671,"apogee_km":502.89535092437,"semimajor_km":6877.3591534005,"source":"CELESTRAK","updated_at":"2026-05-25T13:38:03.581901Z"}}